Regional Weather Roundup
Issued by NWS Burlington, VT

Home | Current Version | Previous Version | Text Only | Print | Product List | Glossary On
Versions: 1 2 3 4 5 6 7 8 9 10 11 12 13 14 15 16 17 18 19 20 21 22 23 24 25 26 27 28 29 30 31 32 33 34 35 36 37 38 39 40 41 42 43 44 45 46 47 48 49 50
801
ASUS41 KBTV 110030
RWRBTV
VERMONT REGIONAL WEATHER ROUNDUP
NATIONAL WEATHER SERVICE BURLINGTON VT
700 PM EST SUN DEC 10 2017

NOTE: "FAIR" INDICATES FEW OR NO CLOUDS BELOW 12,000 FEET WITH NO
SIGNIFICANT WEATHER AND/OR OBSTRUCTIONS TO VISIBILITY.

* THESE REPORTS ARE NOT UNDER NWS QUALITY CONTROL AND/OR DO NOT
  REPORT WEATHER SUCH AS PRECIPITATION AND FOG.

VTZ001>019-110100-
_____VERMONT_____


CITY           SKY/WX    TMP DP  RH WIND       PRES   REMARKS
BURLINGTON     CLOUDY    32  14  47 SW8       29.82R WCI  25
6HR MIN TEMP:  31; 6HR MAX TEMP:  33; 6HR PCP: TRACE;

MONTPELIER     CLOUDY    25  19  78 SW6       29.81R WCI  18
6HR MIN TEMP:  25; 6HR MAX TEMP:  29; 6HR PCP:  0.01;

MORRISVILLE    CLOUDY    26  16  65 S5        29.80R WCI  20
6HR MIN TEMP:  25; 6HR MAX TEMP:  31;

ST. JOHNSBURY*   N/A     27  22  81 MISG      29.79R
6HR MIN TEMP:  27; 6HR MAX TEMP:  33;

LYNDONVILLE*   CLOUDY    26  17  68 S3        29.79R
6HR MIN TEMP:  25; 6HR MAX TEMP:  30;

MIDDLEBURY*    CLOUDY    28  23  82 S5        29.84S WCI  23
6HR MIN TEMP:  28; 6HR MAX TEMP:  35;

RUTLAND*       CLOUDY    29  17  61 VRB3      29.84R
6HR MIN TEMP:  29; 6HR MAX TEMP:  32; 6HR PCP: TRACE;

HIGHGATE*      CLOUDY    29  18  63 S5        29.80S WCI  24
6HR MIN TEMP:  26; 6HR MAX TEMP:  32;

NEWPORT*       MOCLDY    22  17  81 CALM      29.77S
6HR MIN TEMP:  22; 6HR MAX TEMP:  29;


_____LAKE CHAMPLAIN_____


CITY           SKY/WX    TMP DP  RH WIND       PRES   REMARKS
BURTON ISLAND*   N/A     32  23  69 W12G20      N/A  WCI  23
COLCHESTER RF*   N/A     32  18  55 SW14G21     N/A  WCI  22
DIAMOND ISL*     N/A     32  21  64 S13         N/A  WCI  22

$$

NYZ007-026>031-035-052-083-087-110100-
_____NORTHERN NEW YORK_____


CITY           SKY/WX    TMP DP  RH WIND       PRES   REMARKS
PLATTSBURGH    CLOUDY    29  17  61 S6        29.81R WCI  23
6HR MIN TEMP:  29; 6HR MAX TEMP:  35;

SARANAC LAKE   LGT SNOW  22  20  92 SW7       29.71F VSB 1   WCI  13
6HR MIN TEMP:  21; 6HR MAX TEMP:  24; 6HR PCP: TRACE;

MASSENA        CLOUDY    28  21  75 SW12      29.79S WCI  18
6HR MIN TEMP:  28; 6HR MAX TEMP:  29;

OGDENSBURG*    FAIR      30  22  72 SW12      29.78S WCI  21
6HR MIN TEMP:  29; 6HR MAX TEMP:  31;

POTSDAM*       CLOUDY    27  21  80 SW14      29.77S WCI  15
WATERTOWN      CLOUDY    31  25  78 W18G28    29.81S WCI  19
6HR MIN TEMP:  28; 6HR MAX TEMP:  32; 6HR PCP: TRACE;

FT DRUM        FLURRIES  29  23  77 W9        29.78S WCI  20
6HR MIN TEMP:  27; 6HR MAX TEMP:  29; 6HR PCP: TRACE;

ALBANY         CLOUDY    31  21  66 S3        29.90R
6HR MIN TEMP:  30; 6HR MAX TEMP:  36; 6HR PCP: TRACE;

GLENS FALLS    CLOUDY    30  17  58 S7        29.87R WCI  23
6HR MIN TEMP:  30; 6HR MAX TEMP:  35; 6HR PCP: TRACE;


$$
NHZ002-005-011-110100-
_____NEW HAMPSHIRE_____


CITY           SKY/WX    TMP DP  RH WIND       PRES   REMARKS
LEBANON        CLOUDY    27  22  81 S8        29.83R WCI  19
6HR MIN TEMP:  24; 6HR MAX TEMP:  35; 6HR PCP: TRACE;

KEENE          CLEAR     27  19  72 CALM      29.88R
6HR MIN TEMP:  26; 6HR MAX TEMP:  38; 6HR PCP: TRACE;

MT WASHINGTON  SNOW       3   3 100 W54         N/A  VSB 0   WCI -27
6HR MIN TEMP:   3; 6HR MAX TEMP:   7; 6HR PCP:  0.09;

PLYMOUTH       CLOUDY    29  24  82 CALM      29.83R
6HR MIN TEMP:  29; 6HR MAX TEMP:  35;

WHITEFIELD     CLOUDY    22  18  85 S3        29.78R
6HR MIN TEMP:  22; 6HR MAX TEMP:  30; 6HR PCP: TRACE;


$$

_____REGIONAL QUEBEC LOCATIONS_____


CITY           SKY/WX    TMP DP  RH WIND       PRES   REMARKS
MONTREAL       FLURRIES  23  16  74 W2        29.78S
QUEBEC CITY    MOCLDY    18  12  79 SW8       29.76R WCI   7
SHERBROOKE     PTCLDY    21  12  68 VRB2      29.76R

_____REGIONAL ONTARIO LOCATIONS_____


CITY           SKY/WX    TMP DP  RH WIND       PRES   REMARKS
OTTAWA         CLOUDY    25  19  80 S5        29.75R WCI  19

______KEY______
VSB  - VISIBILITY IN MILES
WCI  - WIND CHILL INDEX
HX   - HEAT INDEX
$$
NNNN




USA.gov is the U.S. government's official web portal to all federal, state and local government web resources and services.